Flag for Falkland Islands Weather past 2 weeks in Stanley, Falkland Islands

Now
43 °F

Clear.


Feels Like: 34 °F
Forecast: 40 / 49 °F
Wind: 18 mph from West

Location: Mount Pleasant Airport

Current Time: Oct 26, 2014 at 4:19:00 AM

Latest Report: Oct 26, 2014 at 3:50 AM


Visibility: 10 mi

Pressure: 29.30 "Hg

Humidity: 76%

Dew point: 36 °F

Location of StanleyLocation

Historic Weather in Stanley — Graph

°F

Stanley temperature yesterday

Maximum temperature yesterday: 59 °F (at 12:50 PM)
Minimum temperature yesterday: 45 °F (at 2:50 AM)
Average temperature yesterday: 50 °F

Past Weeks' High & Low Weather Summary

 TemperatureHumidityPressure
High59 °F (Oct 25, 12:50 PM)100% (Oct 12, 2:50 AM)30.07 "Hg (Oct 12, 2:50 AM)
Low28 °F (Oct 12, 5:50 AM)35% (Oct 15, 4:50 PM)28.91 "Hg (Oct 13, 4:50 AM)
Average42 °F76%29.50 "Hg
* Reported Oct 11 2:50 AM — Oct 26 2:50 AM, Stanley, Weather by CustomWeather, © 2014

Note: Actual official high and low records may vary slightly from our data, if they occured in-between our weather recording intervals... More about our weather records

Advertising

Stanley weather history for previous 24 hours

 ConditionsComfort  
Time TempWeatherWind HumidityBarometerVisibility
2:50 AM
Oct 26
43 °FClear.16 mph71%29.30 "Hg10 mi
1:50 AM45 °FClear.16 mph66%29.30 "Hg10 mi
12:50 AM46 °FClear.18 mph57%29.30 "Hg10 mi
11:50 PM
Oct 25
48 °FClear.16 mph54%29.33 "Hg10 mi
10:50 PM46 °FClear.17 mph57%29.33 "Hg10 mi
9:50 PM46 °FClear.22 mph57%29.36 "Hg10 mi
8:50 PM48 °FClear.21 mph54%29.36 "Hg10 mi
7:50 PM50 °FSunny.20 mph50%29.36 "Hg10 mi
6:50 PM52 °FPartly sunny.20 mph44%29.39 "HgN/A
5:50 PM52 °FSunny.21 mph41%29.39 "Hg10 mi
4:50 PM54 °FSunny.26 mph41%29.39 "Hg10 mi
3:50 PM55 °FSunny.24 mph41%29.39 "Hg10 mi
2:50 PM57 °FSunny.26 mph44%29.42 "Hg10 mi
1:50 PM59 °FPassing clouds.30 mph42%29.42 "HgN/A
12:50 PM59 °FPassing clouds.24 mph45%29.42 "HgN/A
11:50 AM55 °FPassing clouds.22 mph55%29.45 "HgN/A
10:50 AM54 °FPassing clouds.23 mph58%29.45 "HgN/A
9:50 AM52 °FScattered clouds.21 mph62%29.47 "HgN/A
8:50 AM48 °FBroken clouds.18 mph71%29.50 "HgN/A
7:50 AM46 °FPassing clouds.17 mph76%29.50 "HgN/A
6:50 AM46 °FBroken clouds.17 mph82%29.50 "HgN/A
5:50 AM45 °FPartly cloudy.14 mph81%29.47 "HgN/A
4:50 AM45 °FPassing clouds.14 mph81%29.47 "HgN/A
Weather by CustomWeather, © 2014

See weather overviewHow to use our weather pages